[[{"header":{"parameterUnit":"m.s-1","parameterCategory":1,"la1":30.2992,"la2":30.254,"lo1":-89.0895,"lo2":-89.0443,"dy":0.0025,"dx":0.0025,"nx":19,"ny":19,"refTime":"2026-05-23T09:00:00:Z","depth":0,"parameterNumber":2,"parameterNumberName":"U-component_of_WINDS"},"data":[0,0,0,-2.885,-2.885,-2.8864,-2.8864,-2.8885,-2.8885,0,0,0,0,0,0,0,0,0,0,0,-2.8851,-2.8852,-2.885,-2.885,-2.8864,-2.8864,-2.8885,-2.8885,0,0,0,0,0,0,0,0,0,0,0,-2.8851,-2.8851,-2.8852,-2.885,-2.8864,-2.8864,-2.8885,-2.8873,0,0,0,0,0,0,0,0,0,0,-2.8858,-2.8866,-2.8851,-2.8852,-2.885,-2.8864,-2.8864,-2.8872,-2.8873,-2.8881,0,-2.8893,0,-2.889,-2.8887,-2.8887,0,0,0,-2.8845,-2.8865,-2.8864,-2.8852,-2.8851,-2.8864,-2.8856,-2.8873,-2.8874,-2.8883,-2.8893,-2.8894,-2.889,-2.8887,-2.8888,-2.8953,-2.8954,0,0,-2.8845,-2.8856,-2.8863,-2.8865,-2.8867,-2.8856,-2.8857,-2.8874,-2.8884,-2.8893,-2.8894,-2.889,-2.8888,-2.8888,-2.8953,-2.8953,0,0,0,-2.8846,-2.8856,-2.8854,-2.8864,-2.8867,-2.8857,-2.8858,-2.8883,-2.8882,-2.8894,-2.889,-2.8888,-2.8888,-2.8952,-2.8953,-2.8989,0,0,0,-2.8845,-2.8857,-2.8854,-2.8861,-2.8867,-2.8876,-2.8867,-2.8881,-2.8882,-2.889,-2.8888,-2.8888,-2.8951,-2.8952,-2.8987,-2.9004,0,0,0,-2.8848,-2.8857,-2.8861,-2.8862,-2.8869,-2.8875,-2.8875,-2.8881,-2.888,-2.8887,-2.8888,-2.8951,-2.8952,-2.8985,-2.9001,-2.9022,0,0,0,-2.8855,-2.8895,-2.8862,-2.8904,-2.8869,-2.8899,-2.8875,-2.8896,-2.8907,-2.8888,-2.8952,-2.8953,-2.8984,-2.8999,-2.902,-2.9042,-2.9052,0,0,-2.8911,-2.8902,-2.8926,-2.8897,-2.8936,-2.8896,-2.8939,-2.8938,-2.8927,-2.8944,-2.8945,-2.8988,-2.9,-2.9022,-2.9111,-2.9119,0,0,0,-2.8947,-2.8964,-2.8972,-2.8983,-2.8983,-2.8983,-2.8973,-2.8972,-2.8985,-2.8939,-2.9002,-2.9009,-2.9021,-2.903,-2.9038,-2.9046,-2.8958,-2.8958,-2.8958,-2.9044,-2.9028,-2.9064,-2.9049,-2.9059,-2.9047,-2.9053,-2.9048,-2.903,-2.9044,-2.9049,-2.9105,-2.9117,-2.9122,-2.9131,-2.906,-2.9061,-2.9061,-2.9061,-2.9123,-2.9143,-2.9115,-2.9141,-2.9121,-2.9141,-2.9129,-2.9115,-2.9128,-2.9101,-2.9111,-2.9082,-2.9132,-2.9138,-2.9063,-2.9063,-2.9063,-2.9062,-2.9062,-2.9184,-2.919,-2.9188,-2.9198,-2.9208,-2.9189,-2.9202,-2.9185,-2.9168,-2.9178,-2.9178,-2.9178,-2.9173,-2.918,-2.918,-2.918,-2.918,-2.918,-2.9181,-2.9247,-2.9243,-2.9257,-2.9257,-2.9259,-2.9259,-2.9244,-2.9245,-2.924,-2.9226,-2.9226,-2.9203,-2.9141,-2.9124,-2.9183,-2.9183,-2.9183,-2.9182,-2.9182,-2.9331,-2.9308,-2.9331,-2.9333,-2.9328,-2.9336,-2.9312,-2.9314,-2.9312,-2.9317,-2.9292,-2.925,-2.9238,-2.9232,-2.9218,-2.9298,-2.9298,-2.9298,-2.9298,-2.938,-2.9373,-2.9389,-2.9392,-2.9393,-2.9373,-2.9393,-2.938,-2.9362,-2.9359,-2.9345,-2.9325,-2.932,-2.9311,-2.9303,-2.929,-2.9386,-2.9386,-2.9386,-2.9429,-2.942,-2.9443,-2.9426,-2.942,-2.9414,-2.9431,-2.9433,-2.9408,-2.9389,-2.9354,-2.9351,-2.9319,-2.931,-2.9291,-2.9279,-2.9254,0,0]},{"header":{"parameterUnit":"m.s-1","parameterCategory":1,"la1":30.2992,"la2":30.254,"lo1":-89.0895,"lo2":-89.0443,"dy":0.0025,"dx":0.0025,"nx":19,"ny":19,"refTime":"2026-05-23T09:00:00:Z","depth":0,"parameterNumber":3,"parameterNumberName":"V-component_of_WINDS"},"data":[0,0,0,0.388,0.3887,0.4253,0.4254,0.4694,0.4698,0,0,0,0,0,0,0,0,0,0,0,0.3748,0.375,0.388,0.3888,0.4253,0.4255,0.4693,0.4698,0,0,0,0,0,0,0,0,0,0,0,0.3747,0.3749,0.3752,0.3889,0.4252,0.4255,0.4693,0.4429,0,0,0,0,0,0,0,0,0,0,0.408,0.3931,0.3749,0.3752,0.3891,0.4252,0.4255,0.4417,0.4445,0.4515,0,0.4563,0,0.4636,0.4725,0.4726,0,0,0,0.3908,0.3907,0.4027,0.3752,0.3894,0.4251,0.4094,0.4433,0.4465,0.4552,0.4569,0.4587,0.4644,0.4727,0.4729,0.5047,0.5047,0,0,0.3888,0.3802,0.4004,0.4047,0.398,0.4082,0.4105,0.4453,0.4469,0.4571,0.4598,0.4651,0.473,0.4733,0.5046,0.5047,0,0,0,0.3817,0.3787,0.3899,0.4027,0.4095,0.4092,0.4119,0.4454,0.4497,0.4603,0.4656,0.4732,0.4737,0.5046,0.5047,0.4988,0,0,0,0.3805,0.3745,0.3889,0.384,0.4087,0.4277,0.411,0.4473,0.4515,0.4654,0.4732,0.4741,0.5045,0.5046,0.4988,0.4975,0,0,0,0.3733,0.3737,0.3781,0.3835,0.3988,0.4273,0.4338,0.4484,0.4547,0.4726,0.4742,0.5045,0.5046,0.4988,0.4976,0.5034,0,0,0,0.3632,0.3725,0.3778,0.3905,0.3984,0.4231,0.4336,0.4527,0.4674,0.4734,0.5046,0.5047,0.4989,0.4976,0.5033,0.5066,0.5071,0,0,0.3702,0.373,0.3812,0.387,0.4085,0.4183,0.4394,0.4613,0.4713,0.4932,0.4941,0.4988,0.4976,0.5034,0.513,0.5133,0,0,0,0.3805,0.3863,0.3939,0.4071,0.4237,0.4382,0.4577,0.466,0.4849,0.4804,0.5027,0.5023,0.5061,0.5081,0.5083,0.5123,0.5052,0.5052,0.5051,0.3782,0.39,0.4044,0.4207,0.4336,0.4537,0.4655,0.4802,0.4886,0.4937,0.5002,0.5045,0.5065,0.5068,0.5107,0.503,0.5029,0.5029,0.5029,0.3897,0.3997,0.4106,0.4284,0.4412,0.4567,0.4767,0.4822,0.4989,0.5005,0.5045,0.5052,0.5068,0.5109,0.5026,0.5027,0.5027,0.5027,0.5027,0.3894,0.3963,0.4058,0.4265,0.4413,0.4579,0.4733,0.4845,0.4953,0.4992,0.5076,0.5077,0.5094,0.5024,0.5024,0.5024,0.5024,0.5024,0.5025,0.3853,0.3963,0.4075,0.4261,0.4363,0.4513,0.4719,0.4825,0.4973,0.5044,0.5045,0.5126,0.5046,0.5023,0.5027,0.5027,0.5027,0.5026,0.5026,0.3926,0.3928,0.41,0.4202,0.4433,0.4574,0.4716,0.4924,0.5029,0.5103,0.5178,0.5099,0.5138,0.5137,0.5119,0.5149,0.5149,0.5149,0.5149,0.3924,0.3954,0.4157,0.4313,0.448,0.4626,0.4827,0.4991,0.5162,0.5236,0.5249,0.5235,0.5229,0.5273,0.5268,0.5254,0.5317,0.5317,0.5317,0.3976,0.4028,0.4172,0.4333,0.4523,0.4685,0.4878,0.506,0.5256,0.5327,0.5298,0.529,0.527,0.5257,0.5324,0.5315,0.5291,0,0]}]]